RH
99 99 101 98 91 88 91 94 90 85 89 94 97 94 90 85 80 72 69 76 86 93 97 93 85 81 82 88 95 99 100 100 100 100 100 100 100 99 99 98 97 93 88 84 80 74 67 61 57 57 55 51 47 45 41 36 34 31 25 21 19 19 21
100 100 100 100 98 96 97 100 100 96 95 94 92 90 88 86 82 76 70 69 74 85 95 99 94 85 80 86 96 100 100 100 100 100 100 100 100 100 99 99 100 98 96 93 88 83 78 73 69 65 61 56 51 48 44 39 37 36 29 22 20 20 23
101 100 100 100 100 98 97 98 100 100 99 97 92 88 86 84 81 78 76 72 69 74 87 99 100 91 82 85 94 99 99 100 100 100 100 100 100 100 100 99 99 99 99 99 95 91 88 83 79 76 74 70 63 56 50 44 42 42 34 26 23 22 22
100 100 101 101 100 99 96 96 97 100 101 99 95 92 91 89 87 86 84 81 74 71 80 93 97 90 84 86 92 97 99 100 100 100 100 100 100 99 100 100 99 98 98 100 100 97 94 90 86 83 82 82 75 65 55 47 44 44 39 31 26 23 20
99 100 100 99 100 100 96 92 92 93 95 95 93 92 90 87 85 85 85 85 79 72 78 90 94 89 87 90 92 95 99 99 100 101 100 100 101 100 100 100 100 98 98 99 99 99 98 95 91 87 84 83 78 70 59 49 45 45 43 37 31 25 20
99 100 101 98 99 100 97 92 89 86 85 84 82 82 80 76 72 69 74 84 84 76 77 88 96 97 96 94 91 91 97 99 99 100 100 100 100 100 100 100 100 100 99 99 97 97 98 97 93 89 87 84 80 75 67 57 49 47 46 43 37 30 23
93 94 95 93 93 96 97 93 88 83 81 79 77 75 73 72 66 59 66 83 88 80 76 81 89 97 100 99 93 86 86 94 100 100 99 101 100 100 100 100 100 100 100 100 98 95 96 96 94 90 87 85 83 79 73 64 56 52 50 46 39 33 26
79 78 79 82 84 86 87 86 83 80 77 75 74 72 69 66 60 55 64 83 92 88 83 79 79 88 99 102 95 85 79 86 97 100 99 100 100 100 100 100 100 100 100 100 99 96 95 94 94 91 89 87 84 79 74 67 59 55 54 51 43 35 26
76 71 66 67 72 75 77 77 75 73 72 69 67 64 61 59 54 54 65 82 93 91 86 80 74 78 93 97 93 91 89 89 95 100 99 99 100 100 100 100 100 100 100 100 100 99 98 97 95 93 91 89 85 80 75 68 61 56 53 51 47 38 28
90 83 73 65 63 65 69 71 70 69 66 65 65 62 60 55 51 55 69 82 89 88 85 84 79 75 83 90 91 97 99 93 93 99 100 99 100 100 100 100 100 100 100 100 100 100 100 100 99 97 93 90 87 83 78 71 65 59 53 48 45 39 34
99 97 92 85 75 65 62 66 68 64 61 64 67 65 61 56 52 60 74 82 89 91 88 89 90 85 82 85 89 97 101 97 94 98 100 100 100 100 100 100 100 100 100 100 100 100 100 100 98 97 95 92 89 86 82 76 70 63 56 50 44 40 38
100 100 100 99 96 83 68 60 58 59 65 72 73 69 67 65 63 69 78 82 88 97 96 94 96 94 89 86 84 88 97 101 97 95 97 100 100 99 100 100 100 100 100 100 100 100 100 98 96 94 94 93 90 88 84 78 72 66 62 57 50 46 44
100 100 100 100 101 97 86 75 70 74 82 87 87 86 87 86 83 81 84 85 89 97 100 98 98 97 94 91 88 88 94 99 98 96 95 97 100 101 100 100 100 100 100 100 100 100 99 96 94 93 92 90 90 88 84 78 72 68 64 59 56 52 50
100 100 101 100 100 100 98 93 87 84 85 88 89 91 95 98 95 90 88 89 92 97 100 100 100 99 97 96 96 97 97 98 98 99 97 96 97 99 100 100 100 99 100 100 99 100 100 98 97 95 92 91 90 88 85 81 76 70 63 56 54 54 54
100 100 100 100 100 100 99 99 96 93 93 95 94 93 95 99 99 96 93 92 94 98 100 100 99 100 99 99 99 99 100 100 99 97 95 93 94 97 100 100 100 100 100 101 101 100 100 100 100 99 97 95 94 90 87 83 79 74 67 59 56 56 59
100 100 100 100 100 100 97 95 98 100 99 96 94 95 98 99 98 99 99 98 98 100 101 101 101 101 99 98 99 98 99 100 100 97 92 90 93 97 98 96 95 96 95 95 97 99 100 100 101 100 100 99 97 94 91 86 79 73 68 63 61 62 65
100 100 100 100 100 100 96 92 93 97 97 93 91 93 95 94 92 92 93 92 93 94 92 92 94 95 96 96 98 99 99 100 101 98 93 89 88 90 94 96 96 96 94 91 93 97 100 100 100 100 100 100 99 97 95 90 85 79 73 70 68 69 73
100 100 99 100 100 100 99 96 95 98 100 97 94 93 93 93 90 87 85 83 83 84 83 83 83 84 87 88 89 94 97 99 99 97 93 91 91 89 92 97 98 99 99 96 96 100 100 100 101 100 100 100 100 99 98 95 92 88 83 78 76 76 81
99 98 98 99 99 100 100 99 98 99 98 96 95 96 98 99 97 94 92 90 90 90 90 90 90 88 85 82 80 82 85 88 94 97 92 92 97 97 95 97 100 100 99 97 98 100 97 96 100 100 99 100 100 100 99 98 97 96 92 88 85 85 87
100 100 101 99 96 97 100 100 99 96 93 92 95 97 98 99 99 98 99 99 98 98 97 98 97 95 92 88 85 83 82 84 92 99 96 95 100 101 97 97 97 95 93 93 98 100 95 94 99 100 100 100 100 100 100 100 100 100 98 95 91 89 90
96 94 96 92 87 89 94 95 92 87 86 91 95 96 93 91 91 92 95 98 100 100 99 99 100 99 99 97 93 90 87 86 91 98 99 98 96 92 88 87 86 86 91 96 99 101 99 98 100 100 100 100 100 100 100 100 100 100 100 98 96 94 94
89 88 89 88 82 79 83 90 92 90 91 94 94 90 87 85 84 86 90 95 99 100 99 98 97 97 98 98 95 94 93 92 94 98 99 96 90 85 84 85 86 89 97 100 100 100 100 100 100 100 100 100 100 100 100 100 100 100 100 100 99 99 98
95 96 96 95 91 85 84 92 99 99 98 98 93 86 84 84 85 89 94 97 100 100 100 100 98 96 95 95 95 96 97 96 97 99 99 97 93 90 90 94 96 98 100 100 100 100 100 100 100 100 100 100 100 100 100 100 100 100 101 101 101 100 100
100 101 99 98 98 96 95 96 98 99 100 100 95 89 85 87 92 97 99 100 100 100 100 100 100 99 99 99 99 99 99 98 99 101 100 99 99 97 97 99 100 100 100 100 100 100 100 100 100 100 100 100 100 100 100 100 100 100 101 101 101 100 98
100 100 100 100 98 97 99 99 96 96 99 99 94 92 91 91 96 100 100 100 100 100 100 100 100 100 100 100 100 100 100 100 100 99 98 99 100 99 99 100 100 100 100 100 100 100 100 100 100 100 100 100 100 100 100 100 100 100 101 101 100 100 99
100 99 100 101 99 95 97 100 97 96 99 98 95 96 97 95 96 100 100 100 100 100 100 100 99 99 99 100 100 100 100 100 99 97 98 100 100 100 101 100 99 99 100 100 100 100 100 100 100 100 100 100 100 100 100 100 100 100 100 100 98 96 92
99 100 99 101 100 95 94 99 99 97 99 99 98 100 100 97 98 99 98 97 97 98 98 97 97 98 99 99 98 99 99 100 100 100 100 99 100 101 99 93 92 97 100 100 100 100 100 100 100 100 100 100 100 100 100 100 100 100 99 97 91 84 76
99 101 100 100 101 98 95 96 99 100 99 99 100 100 99 99 99 96 92 92 93 92 92 95 98 100 99 97 97 99 100 100 100 100 100 100 100 97 91 89 93 100 101 99 100 100 99 100 101 100 100 100 100 100 100 100 101 98 92 84 75 67 62
100 100 100 100 100 100 97 94 96 99 100 100 100 100 100 101 99 92 87 88 91 91 91 94 98 99 97 97 98 100 100 100 100 100 100 99 94 88 86 92 99 101 100 100 100 100 100 100 100 100 100 101 100 100 102 101 95 85 75 68 63 60 58
100 100 101 100 100 101 98 94 94 98 100 100 99 99 100 101 99 94 89 90 93 93 92 93 96 97 98 99 100 100 100 100 100 100 97 92 89 88 92 98 101 100 100 101 100 100 101 100 100 100 101 99 100 102 100 90 76 66 61 59 57 54 52
100 99 97 96 99 101 100 97 97 99 100 98 98 99 100 100 99 97 94 94 96 96 94 93 94 96 99 100 99 100 100 100 100 98 89 84 89 95 98 99 100 100 100 100 100 101 100 100 100 100 99 100 102 99 85 70 60 58 57 55 52 50 48
97 93 91 94 98 100 100 100 100 99 98 98 99 100 100 99 99 98 97 98 98 96 95 94 93 94 99 101 100 100 100 100 99 94 85 83 91 98 98 98 100 100 100 100 100 100 100 101 100 98 97 101 98 84 68 59 57 56 53 51 51 50 46
94 91 92 97 100 100 100 100 98 96 97 99 100 100 99 97 96 96 98 101 100 95 94 94 94 94 98 101 100 99 100 100 98 91 86 88 93 94 95 98 100 100 100 100 100 100 101 101 100 99 99 96 83 68 59 56 55 52 51 50 48 46 44
91 92 91 94 98 99 98 96 93 91 95 100 100 99 97 91 88 90 95 100 101 97 94 94 96 96 99 100 99 98 99 99 95 90 90 94 94 92 93 98 100 100 100 100 100 100 100 100 101 99 92 79 66 59 57 55 52 50 49 46 42 41 41
87 94 94 91 93 95 94 94 93 92 95 100 100 99 97 91 85 87 92 97 101 100 97 97 98 98 99 100 100 98 98 96 94 93 95 95 92 90 91 95 98 99 100 100 100 100 102 102 98 88 75 62 54 53 53 52 50 47 43 40 39 39 38
84 90 93 89 90 93 95 97 97 95 96 101 101 100 100 95 89 89 92 95 99 100 98 99 100 98 99 100 100 99 99 98 97 98 98 95 92 91 92 94 98 100 100 101 102 101 98 90 78 66 57 51 48 48 48 48 45 42 40 39 39 38 38
Wind_Speed
20 19 19 20 21 22 24 25 26 27 26 26 26 25 24 23 23 25 27 26 24 24 25 25 25 29 31 29 26 28 32 33 32 34 37 39 41 43 45 44 43 44 45 41 38 38 38 37 36 36 38 38 39 41 41 41 40 38 36 36 36 36 36
21 20 17 17 19 20 20 22 23 23 25 26 27 25 24 22 22 23 26 27 26 25 25 25 25 26 29 30 26 25 29 32 32 32 33 36 38 40 42 43 43 44 44 41 39 39 39 38 37 36 36 36 37 38 40 40 40 39 36 36 36 36 37
21 21 17 15 17 17 17 18 19 20 21 24 24 23 23 21 20 21 22 25 27 26 24 25 26 26 26 28 28 24 25 30 32 32 32 33 35 36 38 40 41 42 42 40 39 39 39 39 39 39 38 37 37 38 39 39 40 39 38 37 37 38 38
21 20 17 16 15 16 15 15 15 16 18 20 21 21 21 20 20 21 21 22 25 26 25 25 27 26 23 24 27 25 23 26 30 32 32 33 33 34 36 38 39 41 41 38 37 38 38 37 37 37 37 37 36 37 38 39 40 39 39 38 38 39 39
20 19 19 19 16 16 16 16 15 15 16 17 19 20 20 20 20 20 21 22 22 24 25 25 27 27 22 21 25 25 22 22 26 30 31 32 33 33 34 36 38 39 39 38 38 37 36 34 33 33 33 33 33 34 36 39 40 40 38 38 38 38 38
21 21 22 21 19 18 19 19 19 18 19 19 20 21 21 21 21 21 22 22 22 23 25 25 27 27 25 22 22 25 25 21 21 24 27 29 30 31 32 34 37 37 37 37 38 38 36 34 34 33 33 33 32 32 34 38 40 39 38 37 38 38 38
25 26 25 23 22 22 21 22 22 22 23 23 24 24 24 24 24 24 23 23 23 23 25 26 26 26 26 25 22 23 27 26 22 21 24 25 26 28 30 32 34 36 36 36 36 36 36 35 34 33 33 32 31 31 33 36 39 40 38 38 39 39 38
29 29 27 26 26 25 25 25 26 25 26 27 27 28 28 27 27 26 25 24 23 23 25 27 27 25 26 25 22 21 23 28 28 24 23 24 25 26 28 29 31 33 34 35 35 35 35 34 34 33 33 32 32 34 36 38 40 40 39 39 39 39 37
27 29 30 29 29 28 28 29 30 30 29 30 31 32 32 30 29 28 26 24 24 24 25 27 28 28 27 24 23 23 21 24 28 27 24 25 24 25 26 27 28 30 32 34 35 35 34 33 34 34 34 35 36 37 38 39 40 40 39 38 38 38 36
21 23 26 29 30 30 30 30 31 31 31 31 31 31 32 31 30 29 27 25 25 25 25 25 27 29 30 27 24 23 22 21 24 27 26 24 24 24 25 26 28 29 30 31 34 35 35 35 35 36 36 37 37 37 37 38 39 40 39 38 37 37 37
16 17 19 23 26 28 30 30 30 29 28 28 27 28 30 30 29 29 28 27 27 27 25 24 25 27 30 30 26 24 23 22 23 26 27 25 24 24 25 25 27 29 29 30 32 34 35 36 37 37 36 36 36 36 37 39 39 39 39 39 39 39 38
12 12 12 15 19 23 26 28 27 26 25 25 24 25 26 28 28 29 29 29 29 29 28 26 25 25 26 28 28 27 26 24 24 26 27 27 25 24 25 25 26 27 28 29 31 32 34 36 36 36 36 36 36 36 37 38 39 39 40 40 40 39 38
10 8 8 10 13 16 19 21 21 21 21 22 21 21 22 24 27 29 30 29 29 29 29 27 26 25 24 25 26 26 25 26 26 25 26 28 29 28 27 27 28 28 27 27 28 30 33 34 34 34 35 34 35 35 36 38 40 40 40 40 40 39 38
11 9 8 7 8 10 12 14 16 18 19 20 19 19 20 22 24 26 27 28 28 28 28 27 26 25 25 23 23 23 24 25 26 25 24 26 31 34 33 30 30 30 29 27 27 29 30 31 31 32 32 32 33 34 35 37 38 39 39 39 39 38 37
13 12 11 9 6 6 7 7 9 11 13 15 15 16 18 20 22 24 26 26 27 27 26 25 25 24 24 24 23 23 24 24 24 24 22 22 26 33 35 35 34 34 33 32 31 32 31 30 28 28 29 30 31 32 32 33 35 36 38 38 38 37 36
16 15 14 11 9 7 6 5 5 6 8 10 11 12 14 16 18 21 23 24 25 25 25 25 25 24 24 24 24 24 24 25 24 22 20 19 20 23 27 28 29 28 28 29 31 33 32 29 27 27 28 28 29 30 31 31 33 35 36 37 37 37 36
17 16 15 13 10 9 9 7 5 6 9 10 11 12 13 14 16 18 20 21 22 23 24 25 26 27 26 25 26 26 27 28 27 24 22 22 21 21 23 24 21 19 19 20 23 27 28 26 25 26 27 28 29 30 31 31 33 35 36 36 36 36 35
16 16 16 15 11 9 9 8 7 7 9 10 12 12 14 15 17 19 21 22 22 23 23 24 25 26 27 27 28 29 29 29 28 26 26 27 26 25 26 26 23 21 20 19 20 22 25 25 25 26 28 29 30 31 31 31 32 33 34 36 36 36 34
16 16 17 17 13 9 7 7 6 6 7 9 10 12 13 15 16 19 21 22 23 24 25 26 26 24 24 25 25 27 28 27 26 28 29 29 29 31 31 29 27 26 25 23 23 24 25 25 27 28 29 30 31 31 31 30 29 30 31 33 34 35 33
15 16 17 18 15 10 8 7 7 8 8 10 11 13 15 16 17 19 21 22 23 23 24 25 26 26 25 24 23 24 26 26 26 28 29 30 31 33 32 30 29 29 27 26 27 28 26 26 27 29 30 29 30 30 29 28 27 27 27 29 31 33 32
14 14 15 17 15 11 10 11 12 12 12 13 14 15 17 19 21 22 24 25 26 26 26 26 25 25 25 25 24 25 26 28 28 29 31 32 33 31 29 27 28 29 28 29 31 31 29 28 29 30 30 29 29 29 28 27 26 24 24 26 28 29 29
15 15 16 18 17 13 10 11 13 14 15 14 15 15 16 18 19 21 23 25 25 26 28 29 28 28 27 27 27 27 27 29 30 30 31 33 32 29 28 29 29 29 30 32 34 33 31 31 31 31 30 30 29 28 27 26 24 24 24 25 25 23 23
19 19 19 20 20 17 11 7 9 11 12 14 13 12 13 15 16 17 18 20 21 21 22 22 24 25 26 26 27 27 28 29 30 31 33 33 32 30 31 32 32 32 34 35 35 33 33 33 33 32 31 30 29 27 26 24 23 24 24 24 23 21 21
22 22 22 22 22 21 17 10 8 10 11 12 12 11 12 13 14 14 14 14 15 16 15 15 15 17 18 20 22 23 24 26 27 29 32 32 30 30 33 35 35 34 34 34 34 34 34 34 33 32 31 29 28 26 24 23 23 24 24 23 22 21 21
23 23 24 23 22 21 21 18 12 11 11 10 10 11 11 10 10 10 10 10 11 11 10 10 11 12 13 13 14 16 18 20 22 24 27 26 26 28 32 33 31 29 30 32 34 34 34 34 33 31 29 28 26 24 23 23 24 24 23 23 22 22 22
24 25 25 24 22 20 21 20 13 7 7 6 8 8 7 5 5 5 6 7 8 8 9 9 9 10 10 11 12 13 15 17 18 19 20 22 24 26 27 26 24 24 27 31 33 34 34 34 32 29 28 27 25 23 23 24 25 24 23 22 22 22 22
25 27 25 24 22 21 21 18 9 2 4 3 4 3 3 2 2 4 4 4 5 7 8 9 9 10 12 13 14 14 14 14 15 16 18 22 22 21 20 18 18 20 25 29 32 33 33 32 30 28 28 27 25 24 24 24 23 22 22 22 22 21 21
27 26 23 22 22 20 20 16 6 2 2 1 2 2 2 1 1 1 2 3 4 6 7 9 11 12 12 13 14 14 14 14 16 18 20 21 19 16 15 14 15 20 25 28 30 31 32 31 30 29 28 27 25 24 23 22 22 21 21 21 21 21 20
24 21 19 21 20 18 18 15 8 2 1 2 3 3 2 1 3 3 3 2 3 5 7 10 12 12 12 13 14 14 14 17 20 21 19 17 15 14 14 14 16 21 24 26 28 29 31 31 30 29 28 26 25 23 22 21 21 21 21 21 20 19 18
18 17 17 18 18 16 15 13 7 2 1 2 4 5 3 1 4 3 3 2 1 5 9 11 12 12 12 13 14 15 17 20 22 20 17 15 14 14 14 15 17 20 23 24 26 28 30 30 29 28 27 25 24 23 21 20 20 20 20 20 19 17 16
14 14 15 17 17 16 15 11 5 1 2 4 6 5 3 2 4 3 2 2 1 6 10 11 12 12 12 12 13 16 19 20 20 18 16 14 14 14 12 12 16 20 22 23 25 27 29 29 26 24 24 24 23 21 20 21 21 20 19 18 16 14 13
15 14 14 16 17 16 14 10 5 6 7 8 8 7 5 6 7 6 5 3 2 6 9 10 10 10 11 12 13 16 18 19 18 16 14 13 14 14 12 10 14 18 20 21 23 26 27 26 23 21 22 22 20 20 20 21 21 19 18 17 15 14 12
16 15 14 16 17 16 13 9 8 9 10 10 10 8 7 8 8 8 7 5 2 5 7 8 8 8 10 12 14 15 17 17 16 14 13 12 13 13 12 11 13 16 18 19 21 23 24 22 21 20 20 19 19 20 20 20 19 18 17 16 14 13 12
19 16 15 17 17 14 11 9 9 10 11 11 10 8 7 8 9 9 9 6 2 4 6 6 7 7 9 11 13 14 15 15 14 12 12 13 13 12 12 13 14 15 16 17 19 20 21 20 20 20 20 20 21 21 20 18 18 17 16 15 13 13 12
22 18 16 16 17 14 11 9 10 12 12 10 7 7 8 8 9 10 10 7 4 3 4 5 6 7 9 11 13 13 13 13 12 11 12 13 12 12 14 16 17 16 16 17 18 19 19 19 19 20 20 21 21 20 19 18 17 16 14 13 12 12 11
22 19 15 13 15 17 14 10 11 13 13 10 8 9 8 8 9 10 10 9 6 5 4 5 6 8 9 11 12 12 12 11 10 11 11 10 10 11 15 17 18 18 18 18 19 19 20 19 20 20 20 20 19 18 17 16 15 14 13 12 11 11 10
Wind_Direction
303 296 280 273 272 275 274 269 266 262 256 255 260 264 265 266 266 264 261 261 260 258 262 266 264 260 257 255 258 260 255 250 246 243 239 237 236 236 237 236 233 235 240 242 242 242 241 241 241 238 236 237 234 228 225 225 225 223 218 215 217 220 224
304 301 289 280 273 273 273 269 265 261 254 253 258 261 262 263 264 264 263 261 259 257 259 263 264 261 256 254 256 258 257 254 249 245 241 237 236 236 236 236 235 236 237 238 240 241 240 238 237 237 235 235 235 233 229 229 228 226 221 217 218 221 225
302 298 289 283 276 271 270 268 266 262 255 251 254 257 259 262 263 264 266 265 261 258 257 258 261 263 257 252 253 256 256 255 251 248 245 241 239 237 237 236 236 236 236 237 238 240 241 239 238 238 237 236 237 238 236 234 233 230 224 219 218 221 224
296 294 288 281 274 267 264 264 267 267 260 252 250 252 256 260 264 267 270 270 265 260 258 257 257 262 262 253 250 251 254 254 251 248 247 246 244 242 240 238 236 237 237 237 238 240 242 242 241 240 238 236 236 238 239 238 236 234 228 222 220 221 222
291 291 284 273 267 262 256 254 257 259 258 254 250 250 253 257 262 268 271 274 272 262 258 259 256 257 263 260 251 248 251 255 252 249 247 246 245 244 242 239 237 237 238 237 239 241 243 243 242 240 237 234 233 234 237 239 237 235 232 228 224 222 222
283 282 274 266 264 262 255 251 251 251 251 252 251 252 255 259 264 269 270 272 273 265 259 261 258 254 258 263 258 249 247 251 254 252 250 248 246 245 242 239 237 236 236 236 238 240 241 241 240 238 236 233 231 231 235 237 237 235 233 231 229 226 224
278 276 271 266 264 261 258 256 254 253 253 254 256 258 260 263 267 270 268 267 270 269 263 261 260 256 253 257 264 260 250 246 248 252 253 252 251 247 243 239 237 236 234 233 234 236 237 238 238 237 236 235 231 230 233 237 237 235 232 230 229 228 226
280 276 271 267 264 261 260 260 258 256 257 258 260 262 264 265 269 269 264 261 265 268 265 261 260 257 250 251 265 273 260 246 241 245 250 252 252 250 245 241 238 236 234 231 231 231 232 233 233 233 233 231 228 227 229 231 234 235 234 231 230 229 227
280 275 269 265 263 261 260 261 261 259 260 262 263 265 265 265 267 265 258 257 260 262 264 261 255 252 249 251 260 268 265 250 239 238 243 247 249 250 247 244 241 238 236 233 231 231 231 230 230 230 229 228 227 227 228 228 230 233 236 235 233 230 226
279 272 267 264 261 259 256 256 258 259 261 263 264 266 265 263 262 258 252 253 255 256 261 261 255 250 248 249 253 255 258 255 241 235 237 241 244 247 247 245 242 240 238 235 233 233 233 232 231 231 231 232 233 232 230 230 231 232 233 232 232 230 226
288 277 269 264 261 258 256 253 254 256 258 259 261 263 262 260 256 250 247 249 251 252 257 260 258 253 248 245 245 246 250 252 244 236 235 237 239 241 244 245 244 243 241 239 236 235 235 236 237 237 236 236 235 233 231 231 232 232 232 231 229 228 224
302 289 277 271 264 260 258 255 253 254 253 254 255 253 253 252 249 244 244 247 249 251 254 257 259 257 250 243 241 242 244 247 247 242 237 235 235 237 239 241 243 244 244 242 241 238 237 240 242 242 240 237 235 233 231 231 231 231 233 233 232 229 226
325 317 303 287 270 261 259 257 254 252 250 250 249 243 242 245 246 245 246 248 250 252 253 255 256 255 249 242 239 240 241 244 250 252 244 236 233 233 235 237 240 243 244 245 246 243 243 246 246 245 245 244 240 235 230 228 229 230 231 233 233 232 230
349 346 340 314 278 259 255 254 253 252 251 253 251 244 240 242 245 248 248 249 251 253 253 253 254 252 249 244 239 238 238 242 247 249 247 242 235 232 232 233 235 238 241 243 246 245 246 249 250 250 252 250 246 242 236 233 232 231 231 231 232 232 232
360 358 356 348 323 281 257 257 267 266 258 253 250 245 241 243 246 249 251 252 252 251 251 253 254 252 250 247 244 241 239 240 242 242 244 243 234 230 230 231 232 234 235 237 240 241 243 246 248 252 253 252 251 249 245 241 238 236 234 232 231 231 232
7 6 2 355 343 317 288 284 305 295 264 245 243 246 246 245 245 247 250 252 251 248 248 251 253 251 248 246 245 244 243 244 244 243 240 236 230 228 230 232 233 235 236 237 238 238 240 243 246 248 249 250 251 249 245 238 233 231 231 230 229 230 231
17 17 9 357 344 324 303 290 279 266 255 248 248 251 250 245 244 245 246 248 249 249 251 252 252 249 245 241 241 243 243 244 245 244 237 231 229 230 232 235 238 241 243 245 243 240 240 242 244 245 246 246 247 246 243 236 229 227 228 227 227 229 231
23 23 15 5 354 335 313 297 281 268 264 258 251 250 252 251 249 249 249 249 249 249 250 252 253 251 247 243 241 240 240 239 238 237 235 232 231 231 232 233 236 238 243 246 243 238 237 238 241 244 243 243 242 243 242 239 235 232 230 227 228 230 231
19 18 11 2 354 343 327 309 300 295 282 265 254 252 255 256 255 254 255 256 255 254 253 252 251 250 249 248 246 244 242 238 233 231 233 235 237 237 236 235 235 236 239 240 237 234 233 234 238 241 241 240 240 241 242 243 242 239 235 231 230 230 229
12 9 1 352 347 345 335 318 307 302 291 276 267 264 262 260 257 256 256 256 257 257 256 255 253 250 248 248 248 246 242 238 233 233 236 237 239 240 240 238 237 238 239 240 237 234 231 232 233 236 237 236 236 238 239 239 240 240 238 235 232 230 230
359 357 352 346 342 333 316 302 295 292 287 281 275 272 269 266 263 261 260 258 255 252 250 249 248 247 244 243 244 245 242 239 235 235 237 239 239 239 239 239 240 241 242 240 236 231 229 230 231 231 231 231 232 234 235 233 234 234 234 233 233 232 231
358 357 355 349 342 329 304 282 275 276 275 273 273 273 274 274 271 267 264 260 257 254 252 249 246 244 243 242 243 242 240 238 236 234 236 238 238 237 238 239 242 243 241 236 230 226 224 226 227 226 225 226 229 231 232 230 228 227 226 227 230 232 232
12 9 2 353 347 342 327 273 247 255 264 267 271 277 280 279 274 266 259 258 257 257 258 256 250 246 244 242 240 238 237 238 237 234 234 235 236 236 235 235 236 237 234 230 225 220 219 220 222 223 222 223 225 227 228 227 224 221 221 222 222 222 223
14 8 359 352 348 346 340 316 264 243 251 267 281 287 283 277 269 259 251 252 255 255 254 253 246 238 234 233 234 235 235 234 232 228 227 230 234 234 230 228 228 229 227 222 217 215 214 215 217 219 218 218 219 220 221 220 217 216 216 217 217 217 218
9 2 354 350 347 344 343 334 306 255 240 261 283 285 277 270 262 248 239 241 245 243 235 230 224 218 218 221 221 220 218 218 219 220 221 223 225 226 223 222 223 223 220 216 212 210 210 209 210 213 215 213 212 213 215 213 210 209 210 212 214 218 222
5 356 350 349 348 346 346 342 323 264 224 248 274 273 263 254 240 224 221 225 226 218 208 206 206 203 200 199 197 198 202 206 210 213 212 211 215 219 218 218 220 219 215 211 208 207 207 207 207 207 207 205 205 206 207 206 204 205 207 212 217 221 223
1 353 350 350 349 346 347 347 338 222 190 237 276 262 224 218 211 204 206 209 207 205 202 199 192 187 188 190 188 187 191 196 196 193 193 199 205 209 210 212 217 218 214 210 207 206 206 204 202 199 198 198 199 200 199 200 202 205 209 214 217 217 215
352 350 347 345 344 343 344 349 351 194 185 40 38 95 148 102 56 138 232 226 210 208 199 185 175 173 179 184 180 177 181 185 182 181 185 189 192 194 199 205 209 210 209 209 208 206 203 199 195 194 195 195 196 196 197 200 203 207 209 209 208 206 204
348 347 342 340 342 341 340 343 341 301 255 62 79 121 155 42 28 15 324 290 224 205 191 177 170 168 171 174 172 172 175 175 174 174 176 178 180 186 193 198 201 203 204 206 207 204 199 194 191 192 194 195 196 196 198 201 203 203 201 198 196 197 200
351 348 346 348 349 346 343 346 344 321 231 137 132 140 149 27 15 10 335 321 211 189 185 175 168 166 169 172 173 172 171 172 172 171 170 173 181 187 190 194 199 202 203 203 203 201 197 193 191 192 195 197 196 195 195 196 196 194 191 190 191 193 197
356 350 357 1 359 356 355 356 358 30 128 123 117 118 115 45 36 46 30 14 143 178 179 175 171 170 172 174 174 172 171 174 176 173 170 175 181 184 189 197 200 201 201 201 200 198 195 192 192 194 195 194 193 193 192 188 184 184 185 186 188 193 197
4 360 4 8 10 11 7 5 36 100 106 93 83 85 87 71 62 61 60 60 147 179 176 175 175 172 171 173 173 173 175 177 177 174 174 176 178 179 184 195 201 201 201 201 198 195 193 192 192 192 190 188 190 191 187 181 178 180 184 185 186 190 196
15 13 14 18 22 24 25 36 76 96 89 81 85 93 97 86 73 67 68 75 129 173 172 177 179 171 170 174 174 173 177 178 175 172 172 174 177 177 176 179 190 198 199 197 195 193 191 190 190 188 188 190 190 186 181 178 179 181 183 185 187 190 195
23 22 23 24 28 34 47 65 82 82 79 91 106 104 87 79 79 80 80 79 109 162 163 173 178 169 169 174 173 172 174 173 171 170 170 172 174 174 168 166 174 186 190 190 190 189 188 188 188 189 190 187 182 178 178 180 182 183 184 185 187 190 195
19 25 26 25 30 38 50 66 78 75 78 95 101 72 54 60 74 85 89 90 107 141 147 158 166 161 162 167 168 167 168 168 167 167 169 170 173 174 170 168 170 176 181 183 183 184 186 188 188 187 185 180 175 175 178 181 183 185 186 186 188 192 199
15 25 32 34 35 38 48 76 90 79 73 72 57 42 43 54 68 81 89 93 101 112 114 130 146 147 151 160 162 160 161 161 159 161 166 172 177 178 175 173 174 176 178 180 182 183 184 184 181 177 175 176 175 175 178 181 184 185 186 188 194 201 210